FENGYUN 1C DEB

Satellite information

Favourite Embed

Satellite Type and Status

DEBRISIN ORBIT

Key statistics

Satellite FENGYUN 1C DEB at a glance.

Uptime

9715

Days in orbit

Revolutions

≈ 14.3

Per day

Orbit

SSO

Sun Synchronous Orbit

Inclination

98.4

Latest

Satellite identification and parameters

Extended collection of information and parameters for FENGYUN 1C DEB.

Object identification

Identified? True

Debris? True

Object name: FENGYUN 1C DEB

International designator: 1999-025CRB

Object number (NORAD): 32109

Object ID (CCSDS): 32109

Country: PEOPLES REPUBLIC OF CHINA (PRC)

Current information (Y/N): Y

RCS size: SMALL

Orbital parameters

Period: 100.423 minutes

Inclination: 98.3596 deg

SMA: 7156.724 km

Apoapsis: 925.782 km

Periapsis: 631.395 km

RAAN: 226.4944 deg

Eccentricy: 0.02056715

Argument of periapsis: 311.7697 deg

Mean anomaly: 46.6067 deg

Mean motion: 14.33941372 rev/day

Mean motion (dot): 0.00003142 rev/day2

B* drag term: 0.00090275247 1/REarth

Two-line elements (TLE)

Creation date: Dec. 13, 2025, 4:32 a.m.

Reference frame: TEME

Reference center: EARTH

Epoch: Dec. 12, 2025, 10:26 p.m. UTC

TLE line 0: 0 FENGYUN 1C DEB

TLE line 1: 1 32109U 99025CRB 25346.93497696 .00003142 00000-0 90275-3 0 9999

TLE line 2: 2 32109 98.3596 226.4944 0205671 311.7697 46.6067 14.33941372648917

Live tracking on map

Real-time ground track for satellite FENGYUN 1C DEB.

In-orbit conjunctions

A list of the most updated potential collisions computed for object FENGYUN 1C DEB.

Target Orbit TCA Probability of collision Miss distance Type
COSMOS 1275 DEB LEO 2025-05-18 19:01:38 0.0001021139 73.0 (m) DEBRIS
CZ-6A DEB SSO 2024-06-03 18:21:09 0.0001355242 72.0 (m) DEBRIS

Associated space launch

Chinese polar orbiting meteorological satellite

FENGYUN 1C DEB was lifted into orbit during the mission ‘Long March 4B | Feng Yun 1C’, on board a Long March 4B space rocket.

The launch took place on May 10, 1999, 1:33 a.m. from Launch Complex 7.

For more information about the launch, click the button.

Launch to space Long March 4B | Feng Yun 1C
Long March 4B | Feng Yun 1C

Agency: N/A

Status: Launch Successful

Launch date: May 10, 1999, 1:33 a.m. UTC

Rocket: Long March 4B

Launch pad: Launch Complex 7

Location: Taiyuan Satellite Launch Center, People's Republic of China

...

Latest news about this satellite

There are no fresh news available about this satellite. Check back as we update our databases every day.


Newsletter sign-up

Weekly statistics, charts and insights to help you stay on top of the space industry.